Weather History for Homer, AK

Change the Weather History Date:

Friday, November 12, 2010

  Actual Average Record
Temperature  
Mean Temperature 32 °F -  
Max Temperature 39 °F 35 °F 47 °F (1986)
Min Temperature 26 °F 23 °F 2 °F (1990)
Degree Days  
Heating Degree Days 32    
Moisture  
Dew Point 31 °F    
Average Humidity 88    
Maximum Humidity 100    
Minimum Humidity 79    
Precipitation  
Precipitation 0.09 in - - ()
Sea Level Pressure  
Sea Level Pressure 29.34 in    
Wind  
Wind Speed 3 mph (ESE)    
Max Wind Speed 14 mph    
Max Gust Speed 22 mph    
Visibility 10 miles    
Events Rain    
Averages and records for this station are not official NWS values.
T = Trace of Precipitation, MM = Missing Value Source: NWS Daily Summary

Daily Weather History Graph

Daily Weather History Graph

Search for Another Location

Airport:

Trip Planner

Search our weather history database for the weather conditions in past years. The results will help you decide how hot, cold, wet, or windy it might be!

Date:

Astronomy

Nov. 12, 2010 Rise Set
Actual Time 8:54 AM AKST 4:44 PM AKST
Civil Twilight 8:07 AM AKST 5:31 PM AKST
Nautical Twilight 7:16 AM AKST 6:22 PM AKST
Astronomical Twilight 6:28 AM AKST 7:10 PM AKST
Moon 2:15 PM AKST (11/12) 11:22 PM AKST (11/12)
Length of Visible Light 9h 24m
Length of Day
7h 49m
Waxing Crescent, 42% of the Moon is Illuminated
Nov 12
Waxing Crescent
Nov 13
First Quarter
Nov 21
Full
Nov 28
Last Quarter
Dec 5
New

Hourly Weather History & Observations

Time (AKST) Temp. Windchill Dew Point Humidity Pressure Visibility Wind Dir Wind Speed Gust Speed Precip Events Conditions
12:53 AM 35.1 °F 32.2 °F 30.9 °F 85% 29.26 in 10.0 mi NE 3.5 mph - N/A   Overcast
1:53 AM 34.0 °F - 30.0 °F 85% 29.27 in 10.0 mi Calm Calm - N/A   Overcast
2:53 AM 34.0 °F 28.8 °F 28.9 °F 82% 29.27 in 10.0 mi NE 5.8 mph - N/A   Overcast
3:53 AM 34.0 °F - 28.9 °F 82% 29.28 in 10.0 mi Calm Calm - N/A   Overcast
4:53 AM 33.1 °F 28.7 °F 28.9 °F 85% 29.28 in 10.0 mi NE 4.6 mph - N/A   Overcast
5:53 AM 32.0 °F - 28.9 °F 88% 29.28 in 10.0 mi Calm Calm - N/A   Mostly Cloudy
6:53 AM 30.0 °F - 28.0 °F 92% 29.28 in 10.0 mi Calm Calm - N/A   Overcast
7:53 AM 28.0 °F - 27.0 °F 96% 29.29 in 10.0 mi Calm Calm - N/A   Mostly Cloudy
8:53 AM 26.1 °F - 25.0 °F 96% 29.30 in 10.0 mi Calm Calm - N/A   Clear
9:53 AM 28.9 °F - 28.0 °F 96% 29.31 in 10.0 mi Calm Calm - N/A   Overcast
10:53 AM 34.0 °F 31.0 °F 28.9 °F 82% 29.31 in 10.0 mi East 3.5 mph - N/A   Overcast
11:53 AM 34.0 °F - 30.0 °F 85% 29.32 in 10.0 mi Calm Calm - N/A   Overcast
12:53 PM 35.1 °F - 30.9 °F 85% 29.32 in 10.0 mi Calm Calm - N/A   Mostly Cloudy
1:53 PM 37.0 °F 34.5 °F 30.9 °F 79% 29.33 in 10.0 mi NNE 3.5 mph - N/A   Overcast
2:53 PM 36.0 °F - 30.9 °F 82% 29.33 in 10.0 mi Calm Calm - N/A   Overcast
3:53 PM 36.0 °F - 32.0 °F 86% 29.33 in 10.0 mi Calm Calm - N/A   Overcast
4:53 PM 35.1 °F - 32.0 °F 89% 29.33 in 10.0 mi Calm Calm - N/A   Mostly Cloudy
5:53 PM 35.1 °F - 32.0 °F 89% 29.34 in 10.0 mi Calm Calm - 0.00 in   Overcast
6:53 PM 34.0 °F - 34.0 °F 100% 29.36 in 6.0 mi Calm Calm - 0.03 in Rain Light Rain
7:53 PM 35.1 °F - 35.1 °F 100% 29.37 in 7.0 mi Calm Calm - 0.04 in Rain Light Rain
8:53 PM 34.0 °F - 34.0 °F 100% 29.39 in 10.0 mi Calm Calm - 0.01 in   Overcast
9:53 PM 39.9 °F 32.5 °F 34.0 °F 79% 29.41 in 10.0 mi SSW 12.7 mph 17.3 mph 0.01 in   Overcast
10:35 PM 39.2 °F 35.0 °F 33.8 °F 81% 29.41 in 10.0 mi South 5.8 mph - 0.00 in   Overcast
10:53 PM 39.0 °F 31.4 °F 34.0 °F 82% 29.43 in 10.0 mi SSW 12.7 mph 18.4 mph 0.00 in Rain Light Rain
11:30 PM 37.4 °F 28.9 °F 35.6 °F 93% 29.45 in 10.0 mi WSW 13.8 mph - 0.00 in Rain Light Rain
11:53 PM 36.0 °F 27.1 °F 34.0 °F 93% 29.47 in 10.0 mi West 13.8 mph 21.9 mph 0.00 in   Overcast